Regional Weather Roundup
Issued by NWS Bismarck, ND

Home | Current Version | Previous Version | Text Only | Print | Product List | Glossary On
Versions: 1 2 3 4 5 6 7 8 9 10 11 12 13 14 15 16 17 18 19 20 21 22 23 24 25 26 27 28 29 30 31 32 33 34 35 36 37 38 39 40 41 42 43 44 45 46 47 48 49 50
000
ASUS43 KBIS 252210
RWRBIS

NWR BROADCAST TEXT
NATIONAL WEATHER SERVICE BISMARCK ND
500 PM CDT MON JUL 25 2016

NOTE: "FAIR" INDICATES FEW OR NO CLOUDS BELOW 12,000 FEET WITH NO
SIGNIFICANT WEATHER AND/OR OBSTRUCTIONS TO VISIBILITY.


CITY           SKY/WX    TMP DP  RH WIND       PRES   REMARKS
WILLISTON      SUNNY     92  54  27 N12       29.96F HX  90
MINOT          SUNNY     90  63  40 NE6       29.94S HX  91
MINOT AFB      SUNNY     87  63  44 NE8       29.93S
BISMARCK       SUNNY     93  62  35 W6        29.93S HX  93
DICKINSON      SUNNY     92  45  19 VRB3      29.95F
GARRISON         N/A     88  63  43 VRB3      29.94F
HETTINGER ARPT SUNNY     99  47  17 VRB3      29.96S HX  95
JAMESTOWN      SUNNY     89  64  43 S12       29.93F HX  90
CARRINGTON     FAIR      88  70  55 SW12      29.94F HX  92
HAZEN            N/A     90  59  35 CALM      29.95S
LINTON         FAIR      93  68  43 SW13G23   29.95F HX  97
MANDAN         FAIR      91  63  38 CALM      29.94F HX  92
OAKES            N/A    N/A N/A N/A MISG        N/A
STANLEY        FAIR      86  59  39 NE9       30.00S
WATFORD CITY     N/A    N/A N/A N/A MISG        N/A
$$

CITY           SKY/WX    TMP DP  RH WIND       PRES   REMARKS
GRAND FORKS    MOSUNNY   88  67  49 S8        29.92F HX  91
GRAND FORKS AF SUNNY     87  68  52 S6        29.93F HX  90
DEVILS LAKE    SUNNY     86  70  58 NE8       29.93F HX  90
FARGO          SUNNY     90  59  35 S16       29.94F
CAVALIER       FAIR      84  64  51 CALM      29.94F
GRAFTON        FAIR      86  64  48 SW5       29.95F
GWINNER        FAIR      90  63  40 S16G23    29.96F HX  90
LANGDON        FAIR      86  66  51 E5        29.98S
ROLLA            N/A     81  64  57 E5        29.99F
$$

CITY           SKY/WX    TMP DP  RH WIND       PRES   REMARKS
ABERDEEN       SUNNY     93  55  27 S14G23    29.97F HX  91
MOBRIDGE       SUNNY    100  49  17 SW16G24   29.91S HX  97
BUFFALO          N/A     96  42  15 NE8       29.90F HX  92
RAPID CITY     CLOUDY    86  57  37 S10       30.01S
GLASGOW        SUNNY     92  46  20 CALM      29.96F
SIDNEY         SUNNY     91  56  30 E8        29.95S
WOLF POINT     SUNNY     95  49  20 MISG      29.96S HX  92
GLENDIVE       SUNNY     94  51  23 E8        29.96S HX  91
MILES CITY     SUNNY     99  36  11 NE5       29.93F HX  93
BAKER          SUNNY     96  45  17 VRB7      29.98F HX  92
$$

CITY           SKY/WX    TMP DP  RH WIND       PRES   REMARKS
BILLINGS       MOSUNNY   95  34  11 E6        29.99F HX  90
GREAT FALLS    SUNNY     89  41  18 VRB6G16   30.05F
REGINA         MOSUNNY   82  59  44 NW8       29.99R
ESTEVAN        MOSUNNY   86  63  45 VRB6      29.97F
$$




USA.gov is the U.S. government's official web portal to all federal, state and local government web resources and services.